Regional Weather Roundup
Issued by NWS San Angelo, TX

Home | Current Version | Previous Version | Text Only | Print | Product List | Glossary On
Versions: 1 2 3 4 5 6 7 8 9 10 11 12 13 14 15 16 17 18 19 20 21 22 23 24 25 26 27 28 29 30 31 32 33 34 35 36 37 38 39 40 41 42 43 44 45 46 47 48 49 50
000
ASUS44 KSJT 021210
RWRSJT
WEST CENTRAL TEXAS REGIONAL WEATHER ROUNDUP
NATIONAL WEATHER SERVICE SAN ANGELO TX
700 AM CDT THU JUL 02 2015

NOTE: "FAIR" INDICATES FEW OR NO CLOUDS BELOW 12,000 FEET WITH NO
SIGNIFICANT WEATHER AND/OR OBSTRUCTIONS TO VISIBILITY.

TXZ049-054-064>066-071>073-076>078-098-099-113-114-127-128-139-140-
154-155-168>170-021300
...LOCATIONS ACROSS WEST CENTRAL TEXAS...

CITY           SKY/WX    TMP DP  RH WIND       PRES   REMARKS
SAN ANGELO     CLEAR     69  65  86 S5        30.00R
ABILENE        CLEAR     70  65  84 S7        30.00R
DYESS AFB      CLEAR     70  65  86 S8        29.98R
JUNCTION       CLEAR     68  62  81 CALM      30.02R
SWEETWATER     NOT AVBL
BROWNWOOD      CLEAR     68  68 100 S8        30.02R
COLEMAN        NOT AVBL
SONORA         NOT AVBL
OZONA          NOT AVBL
BRADY          NOT AVBL
$$

TEXAS PANHANDLE/OKLAHOMA PANHANDLE

CITY           SKY/WX    TMP DP  RH WIND       PRES   REMARKS
AMARILLO       TSTM      70  64  81 E10       30.04R
BORGER         CLOUDY    73  64  73 CALM      30.00R
CANADIAN       NOT AVBL
DALHART        CLOUDY    69  61  75 E6        30.06R
DUMAS          NOT AVBL
GUYMON         NOT AVBL
HEREFORD       CLOUDY    69  63  81 MISG      30.03S
PAMPA          NOT AVBL
PERRYTON       CLOUDY    73  60  62 NW7       29.96S
$$

SOUTHERN PANHANDLE/SOUTH PLAINS/ROLLING PLAINS

CITY           SKY/WX    TMP DP  RH WIND       PRES   REMARKS
LUBBOCK        CLOUDY    69  64  84 W7        30.04S
SNYDER         NOT AVBL
CHILDRESS      MOCLDY    73  66  78 S9        29.95S
SEMINOLE       NOT AVBL
$$

PERMIAN BASIN

CITY           SKY/WX    TMP DP  RH WIND       PRES   REMARKS
MIDLAND        CLOUDY    72  65  78 S15       30.00S
ODESSA         CLOUDY    71  64  78 MISG      30.01S
WINK           CLEAR     70  65  84 SE10      29.97R
$$

FAR WEST/SOUTHWEST MOUNTAINS/TRANS PECOS

CITY           SKY/WX    TMP DP  RH WIND       PRES   REMARKS
ALPINE         NOT AVBL
DRYDEN           N/A     68  64  87 VRB3      29.98R
EL PASO        PTCLDY    74  53  48 CALM      29.99R
FORT STOCKTON  CLEAR     69  64  84 SE9       29.98R
GUADALUPE PASS CLEAR     71  57  61 CALM      30.14R
MARFA          PTCLDY   N/A N/A N/A CALM      30.12R
PECOS          NOT AVBL
$$

DALLAS/FORT WORTH METROPLEX

CITY           SKY/WX    TMP DP  RH WIND       PRES   REMARKS
DFW AIRPORT    MOCLDY    75  68  78 S9        29.97R
FTW MEACHAM    CLEAR     73  68  84 S9        29.96R
DAL-EXECUTIVE  CLEAR     72  68  87 VRB5      29.98R
GRAND PRAIRIE  CLEAR     72  72 100 S9        29.99
ADDISON        CLEAR     75  68  78 S7G21     29.98
MESQUITE       SUNNY     72  70  94 S9        29.98
LANCASTER      NOT AVBL
$$

NORTH CENTRAL TEXAS

CITY           SKY/WX    TMP DP  RH WIND       PRES   REMARKS
SHRMAN/DENISON NOT AVBL
GAINESVILLE    NOT AVBL
BRIDGEPORT     NOT AVBL
DENTON         CLEAR     73  68  84 SW12      29.95R
WAXAHACHIE     NOT AVBL
GRANBURY       NOT AVBL
$$

WESTERN NORTH TEXAS

CITY           SKY/WX    TMP DP  RH WIND       PRES   REMARKS
WICHITA FALLS  MOCLDY    76  67  73 SW14      29.93R
VERNON         NOT AVBL
BRECKENRIDGE   NOT AVBL
COMANCHE       NOT AVBL
$$

CENTRAL AND SOUTH CENTRAL TEXAS

CITY           SKY/WX    TMP DP  RH WIND       PRES   REMARKS
AUSTIN/BERGSTM MOCLDY    69  69 100 S6        30.03R
WACO           PTCLDY    71  69  93 S15       30.00S
HILLSBORO      NOT AVBL
TEMPLE         CLOUDY    70  66  88 S10       30.01S
KILLEEN-GRAY   PTCLDY    68  68 100 S8        30.01R
FORT HOOD      MOCLDY    69  68  97 S9        30.01R
GEORGETOWN     PTCLDY    70  70 100 SE5       30.01S
LAGO VISTA     NOT AVBL
SAN MARCOS     CLOUDY    72  68  88 S9        30.04R FOG
NEW BRAUNFELS  CLOUDY    71  70  96 S3        30.02R FOG
RANDOLPH AFB   FOG       67  67 100 E2        30.03R VSB 1/4
SAN ANTONIO    PTCLDY    70  67  90 E5        30.03R
STINSON        CLEAR     70  68  93 SE6       30.00S
PLEASANTON     NOT AVBL
LA GRANGE      CLOUDY    72  72  99 S3        30.01S FOG
GIDDINGS       NOT AVBL
$$

EAST TEXAS

CITY           SKY/WX    TMP DP  RH WIND       PRES   REMARKS
PARIS          PTCLDY    73  64  73 SW15      29.96R
CLARKSVILLE    NOT AVBL
TYLER          PTCLDY    73  68  84 SW12      30.00R
LONGVIEW       MOCLDY    76  68  76 SW7       29.99R
PALESTINE      NOT AVBL
NACOGDOCHES    MOCLDY    72  70  94 SW5       30.02R
$$

TEXAS HILL COUNTRY AND EDWARDS PLATEAU

CITY           SKY/WX    TMP DP  RH WIND       PRES   REMARKS
LLANO          SUNNY     68  64  88 CALM      30.05R
HORSESHOE BAY  NOT AVBL
KERRVILLE      NOT AVBL
FREDERICKSBRG  NOT AVBL
ROCKSPRINGS    SUNNY     64  61  88 S9        30.05S
HONDO          CLEAR     67  65  93 E5        30.03S
UVALDE         NOT AVBL
DEL RIO        CLEAR     70  64  81 E10       29.97R
$$

SOUTHEAST TEXAS

CITY           SKY/WX    TMP DP  RH WIND       PRES   REMARKS
COLLEGE STN    CLOUDY    72  70  93 S8        30.03S FOG
CALDWELL       CLOUDY    70  70 100 S5        30.06S FOG
CROCKETT       NOT AVBL
BRENHAM        NOT AVBL
HUNTSVILLE     PTCLDY    72  71  97 S7        30.03F
CONROE         CLEAR     69  68  96 CALM      30.04F
HOUSTON BUSH   PTCLDY    72  70  93 CALM      30.03S
HOUSTON HOBBY  PTCLDY    72  70  93 CALM      30.03S
PERLAND        PTCLDY    72  70  93 SE3       30.05R
WHARTON        NOT AVBL
$$

THE UPPER TEXAS COAST

CITY           SKY/WX    TMP DP  RH WIND       PRES   REMARKS
ORANGE         NOT AVBL
PORT ARTHUR    MOCLDY    75  74  96 CALM      30.04S
GALVESTON      PTCLDY    80  78  94 S3        30.04R
ANGLETON       CLOUDY    74  73  97 CALM      30.03R
BAY CITY       NOT AVBL
$$

TEXAS COASTAL BEND, RIO GRANDE PLAINS DEEP SOUTH TEXAS

CITY           SKY/WX    TMP DP  RH WIND       PRES   REMARKS
VICTORIA       PTCLDY    71  71 100 N6        30.02R
BEEVILLE       NOT AVBL
ROCKPORT       CLEAR     80  76  87 SE7       29.99R
PORT ARANSAS   NOT AVBL
PORT LAVACA    NOT AVBL
CORPUS CHRISTI MOCLDY    74  71  91 SE6       29.99R
KINGSVILLE NAS MOCLDY    72  72 100 N5        30.00R FOG
COTULLA        PTCLDY    69  66  90 SE6       29.99R
LAREDO         CLOUDY    71  66  84 NE5       30.00R
BROWNSVILLE    PTCLDY    76  74  93 E8        29.97R FOG
PORT ISABEL    CLEAR     78  76  93 SE8       29.97R FOG
HEBBRONVILLE     N/A     70  68  91 E5        30.01R
MCALLEN        CLOUDY    76  70  82 E3        29.97S
WESLACO        NOT AVBL
FALFURRIAS     NOT AVBL
EDINBURG       NOT AVBL
$$



USA.gov is the U.S. government's official web portal to all federal, state and local government web resources and services.